This is the latest recevied weather packets stored in our database for station/object KF7SOJ. If no packets are shown the sender has not sent any weather packets the latest 10 day(s).
| Time | Temp. | Humidity | Pressure | Rain* | Wind** | Luminosity | Snow |
|---|---|---|---|---|---|---|---|
| 1777344637 | 0.56° C | 76% | 932.2 hPa | 0 mm | - | 0 W/m² | - |
| 1777344334 | 0.56° C | 75% | 932.2 hPa | 0 mm | - | 0 W/m² | - |
| 1777344032 | 1.11° C | 75% | 932.3 hPa | 0 mm | - | 0 W/m² | - |
| 1777343728 | 0.56° C | 75% | 932.2 hPa | 0 mm | - | 0 W/m² | - |
| 1777343426 | 1.11° C | 74% | 932.3 hPa | 0 mm | - | 1 W/m² | - |
| 1777343124 | 1.11° C | 74% | 932.3 hPa | 0 mm | - | 2 W/m² | - |
| 1777342821 | 1.11° C | 73% | 932.2 hPa | 0 mm | - | 3 W/m² | - |
| 1777342518 | 1.67° C | 72% | 932.2 hPa | 0 mm | - | 5 W/m² | - |
| 1777342214 | 2.22° C | 70% | 932.1 hPa | 0 mm | - | 8 W/m² | - |
| 1777341303 | 2.78° C | 69% | 932.2 hPa | 0 mm | - | 20 W/m² | - |
| 1777340698 | 2.78° C | 67% | 932.1 hPa | 0 mm | - | 30 W/m² | - |
| 1777340396 | 3.33° C | 65% | 932 hPa | 0 mm | - | 36 W/m² | - |
| 1777340093 | 3.33° C | 64% | 931.9 hPa | 0 mm | - | 42 W/m² | - |
| 1777339488 | 3.89° C | 64% | 932.1 hPa | 0 mm | - | 56 W/m² | - |
| 1777338883 | 3.33° C | 64% | 932.2 hPa | 0 mm | - | 65 W/m² | - |
| 1777338579 | 3.33° C | 63% | 932.2 hPa | 0 mm | - | 64 W/m² | - |
| 1777338277 | 3.89° C | 61% | 932.1 hPa | 0 mm | - | 98 W/m² | - |
| 1777337064 | 3.89° C | 62% | 932.4 hPa | 0 mm | - | 158 W/m² | - |
| 1777336158 | 3.89° C | 62% | 932.3 hPa | 0 mm | - | 230 W/m² | - |
| 1777335855 | 3.89° C | 62% | 932.4 hPa | 0 mm | - | 179 W/m² | - |
| 1777335552 | 4.44° C | 61% | 932.3 hPa | 0 mm | - | 230 W/m² | - |
| 1777334947 | 3.89° C | 60% | 932.3 hPa | 0 mm | - | 232 W/m² | - |
* Rain latest hour (hover to see other rain measurements)
** Current wind speed in m/s (hover to see current wind gust speed)